FW2584 Weather Reports


Display with metric or nautical units.
time (UTC)temp
F
wind
direction
speed
MPH
gust
MPH
rain 1hr
in
rain 24hr
in
rain mn
in
humidity
%
barometer
mb
20240527062903 75 142 0.0 0.0 0.00 0.01 0.00 96 1011.4
20240527062403 75 142 0.0 0.0 0.00 0.01 0.00 96 1011.5
20240527061904 76 142 0.0 0.0 0.00 0.01 0.00 96 1011.3
20240527061404 75 142 0.0 0.0 0.00 0.01 0.00 95 1011.3
20240527060903 76 142 0.0 0.0 0.00 0.01 0.00 95 1011.4
20240527060403 76 142 0.0 0.0 0.00 0.01 0.00 95 1011.4
20240527055403 76 142 0.0 0.0 0.00 0.01 0.00 95 1011.5
20240527054904 76 142 0.0 0.0 0.00 0.01 0.00 94 1011.5
20240527053904 76 142 0.0 0.0 0.00 0.01 0.00 94 1011.8
20240527053403 76 142 0.0 0.0 0.00 0.01 0.00 94 1011.7
20240527052904 76 142 0.0 0.0 0.00 0.01 0.00 94 1011.7
20240527052404 76 142 0.0 0.0 0.00 0.01 0.00 94 1011.9
20240527051903 76 142 0.0 0.0 0.00 0.01 0.00 94 1012.0
20240527051403 76 142 0.0 0.0 0.00 0.01 0.00 95 1012.1
20240527050904 76 144 0.0 0.0 0.00 0.01 0.00 95 1012.2
20240527050404 76 144 0.0 0.0 0.00 0.01 0.00 95 1012.3
20240527045403 76 144 0.0 0.0 0.00 0.01 0.00 95 1012.3
20240527044904 76 144 0.0 0.0 0.00 0.01 0.00 95 1012.4
20240527044404 76 144 0.0 0.0 0.00 0.01 0.00 94 1012.3
20240527043402 77 144 0.0 0.0 0.00 0.01 0.00 94 1012.2
20240527042402 77 144 0.0 0.0 0.00 0.01 0.00 93 1012.2
20240527041902 77 144 0.0 0.0 0.00 0.01 0.00 93 1012.2
20240527041402 77 144 0.0 0.0 0.00 0.01 0.00 93 1012.3
20240527040902 77 144 0.0 0.0 0.00 0.01 0.00 93 1012.3
20240527040402 77 144 0.0 0.0 0.00 0.01 0.00 92 1012.4
20240527035402 77 144 0.0 0.0 0.00 0.01 0.01 92 1012.5
20240527034403 77 144 0.0 0.0 0.00 0.01 0.01 92 1012.4
20240527033902 77 144 0.0 0.0 0.00 0.01 0.01 92 1012.4
20240527033402 77 144 0.0 0.0 0.00 0.01 0.01 92 1012.3
20240527032901 77 144 0.0 0.0 0.00 0.01 0.01 91 1012.4
20240527032401 77 144 0.0 0.0 0.00 0.01 0.01 91 1012.6
20240527031902 77 144 0.0 0.0 0.00 0.01 0.01 91 1012.4
20240527031402 77 144 0.0 0.0 0.00 0.01 0.01 91 1012.3
20240527030402 77 144 0.0 0.0 0.00 0.01 0.01 90 1011.8
20240527025402 78 144 0.0 0.0 0.00 0.01 0.01 91 1011.7
20240527024902 78 144 0.0 0.0 0.00 0.01 0.01 90 1012.0
20240527024402 78 144 0.0 0.0 0.00 0.02 0.01 91 1012.0
20240527023902 78 144 0.0 0.0 0.00 0.02 0.01 92 1011.9
20240527023402 78 144 0.0 0.0 0.00 0.03 0.01 92 1012.0
20240527022402 78 144 0.0 0.0 0.00 0.03 0.01 91 1012.0
20240527021902 78 144 0.0 0.0 0.00 0.03 0.01 91 1012.0
20240527020402 78 144 0.0 0.0 0.00 0.04 0.01 93 1012.0
20240527015902 78 144 0.0 0.0 0.00 0.07 0.01 93 1011.8
20240527015402 78 144 0.0 0.0 0.00 0.10 0.01 93 1011.8
20240527014401 78 144 0.0 0.0 0.00 0.11 0.01 92 1012.0
20240527013902 78 144 0.0 0.0 0.00 0.11 0.01 90 1011.9
20240527013402 78 144 0.0 0.0 0.00 0.11 0.01 92 1012.2
20240527012902 78 144 0.0 0.0 0.00 0.11 0.01 92 1011.9
20240527012401 78 144 0.0 0.0 0.00 0.11 0.01 91 1011.9
20240527011901 79 144 0.0 0.0 0.00 0.11 0.01 91 1011.7
20240527011402 79 144 0.0 0.0 0.00 0.11 0.01 91 1011.7
20240527010902 79 144 0.0 0.0 0.00 0.11 0.01 90 1011.7
20240527010402 79 144 0.0 0.0 0.00 0.11 0.01 89 1011.7
20240527005902 79 144 0.0 0.0 0.00 0.11 0.01 88 1011.8
20240527004902 80 144 0.0 0.0 0.00 0.11 0.01 85 1012.0
20240527004402 80 144 0.0 0.0 0.00 0.11 0.01 84 1011.8
20240527003902 80 144 0.0 0.0 0.00 0.11 0.01 84 1011.8
20240527003402 81 144 0.0 0.0 0.00 0.11 0.01 84 1011.7
20240527002902 82 144 0.0 0.0 0.00 0.11 0.01 85 1011.6
20240527002402 82 144 0.0 0.0 0.00 0.11 0.01 84 1011.6
20240527001902 83 144 0.0 0.0 0.00 0.11 0.01 83 1011.5
20240527001402 83 144 0.0 0.0 0.00 0.11 0.01 82 1011.5
20240527000902 83 144 0.0 0.0 0.00 0.11 0.01 81 1011.4
20240527000402 83 144 0.0 0.0 0.00 0.11 0.01 79 1011.4
20240526235902 84 144 0.0 0.0 0.00 0.11 0.01 79 1011.4
20240526234902 84 144 0.0 0.0 0.00 0.11 0.01 78 1011.3
20240526234402 84 144 0.0 0.0 0.00 0.11 0.01 78 1011.3
20240526233902 85 144 0.0 0.0 0.00 0.11 0.01 77 1011.4
20240526233402 85 144 0.0 0.0 0.00 0.11 0.01 77 1011.3
20240526232902 85 144 0.0 0.0 0.00 0.11 0.01 76 1011.1
20240526232402 85 144 0.0 0.0 0.00 0.11 0.01 77 1011.1
20240526231902 86 144 0.0 0.0 0.00 0.11 0.01 77 1011.0
20240526231401 86 144 0.0 0.0 0.00 0.11 0.01 75 1011.0
20240526230902 86 144 0.0 0.0 0.00 0.11 0.01 73 1011.0
20240526230402 86 144 0.0 0.0 0.00 0.11 0.01 74 1011.0
20240526225902 87 144 0.0 0.0 0.00 0.11 0.01 73 1011.1
20240526225402 87 144 0.0 0.0 0.00 0.11 0.01 72 1011.0
20240526224903 87 144 0.0 0.0 0.00 0.11 0.01 74 1011.1
20240526224402 87 144 0.0 0.0 0.00 0.11 0.01 71 1011.2
20240526222902 87 165 0.0 0.0 0.00 0.11 0.01 72 1011.2
20240526222402 87 165 0.0 0.0 0.00 0.11 0.01 69 1011.2
20240526221402 87 165 0.0 0.0 0.00 0.11 0.01 70 1011.1
20240526220902 87 165 0.0 0.0 0.00 0.11 0.01 69 1011.0
20240526220402 87 165 0.0 0.0 0.00 0.11 0.01 69 1011.0
20240526215902 87 165 0.0 0.0 0.00 0.11 0.01 65 1011.0
20240526215402 88 165 0.0 0.0 0.00 0.11 0.01 68 1011.0
20240526214902 88 165 0.0 0.0 0.00 0.11 0.01 65 1011.0
20240526214402 88 165 0.0 0.0 0.00 0.11 0.01 64 1011.0
20240526213903 89 165 0.0 1.0 0.00 0.11 0.01 62 1011.2
20240526213417 89 165 0.0 1.0 0.00 0.11 0.01 61 1011.1
20240526212903 89 165 0.0 1.0 0.00 0.11 0.01 62 1011.3
20240526212423 89 165 0.0 1.0 0.00 0.11 0.01 64 1011.1
20240526211902 89 165 0.0 1.0 0.00 0.11 0.01 60 1011.0
20240526211402 89 160 0.0 1.0 0.00 0.11 0.01 63 1010.8
20240526210903 90 160 0.0 1.0 0.00 0.11 0.01 60 1010.8
20240526210402 90 160 0.0 2.0 0.00 0.11 0.01 59 1010.9
20240526205902 91 236 0.0 3.0 0.00 0.11 0.01 62 1010.8
20240526205402 91 291 0.0 3.0 0.00 0.11 0.01 59 1010.8
20240526204902 91 175 0.0 3.0 0.00 0.11 0.01 60 1010.7
20240526204402 92 169 0.0 0.0 0.00 0.11 0.01 59 1010.7
20240526203902 91 169 0.0 5.0 0.00 0.11 0.01 60 1010.7
20240526203022 91 167 1.0 5.0 0.00 0.11 0.01 58 1011.0
20240526202403 92 155 0.0 1.0 0.00 0.11 0.01 61 1010.7
20240526201903 92 155 0.0 1.0 0.00 0.11 0.01 58 1010.7
20240526201402 92 155 0.0 1.0 0.00 0.11 0.01 59 1010.8
20240526200903 92 153 0.0 1.0 0.00 0.11 0.01 59 1010.9
20240526195902 91 144 0.0 1.0 0.00 0.11 0.01 58 1010.8
20240526195402 91 172 0.0 1.0 0.00 0.11 0.01 61 1010.9
20240526194902 91 315 0.0 1.0 0.00 0.11 0.01 56 1010.9
20240526193902 91 315 0.0 3.0 0.00 0.11 0.01 56 1011.0
20240526193402 92 224 0.0 3.0 0.00 0.11 0.01 55 1011.1
20240526192902 92 178 0.0 1.0 0.00 0.11 0.01 55 1011.1
20240526192403 92 159 0.0 1.0 0.00 0.11 0.01 51 1011.1
20240526191902 92 159 0.0 1.0 0.00 0.11 0.01 57 1011.2
20240526191402 91 159 0.0 1.0 0.00 0.11 0.01 57 1011.2
20240526190402 90 155 0.0 2.0 0.00 0.11 0.01 59 1011.4
20240526185902 90 155 0.0 2.0 0.00 0.11 0.01 60 1011.5
20240526185402 90 150 0.0 3.0 0.00 0.11 0.01 63 1011.6
20240526184403 90 153 0.0 3.0 0.00 0.11 0.01 64 1011.7
20240526183903 90 141 0.0 3.0 0.00 0.11 0.01 59 1011.9
20240526183402 90 304 0.0 1.0 0.00 0.11 0.01 60 1012.0
20240526182903 90 305 0.0 3.0 0.00 0.11 0.01 62 1012.0
20240526182402 90 300 0.0 5.0 0.00 0.11 0.01 62 1012.1
20240526181902 89 308 1.0 5.0 0.00 0.11 0.01 57 1012.2
20240526181402 89 80 0.0 1.0 0.00 0.11 0.01 66 1012.2
20240526180902 89 80 0.0 5.0 0.00 0.12 0.01 61 1012.3
20240526180402 90 229 0.0 5.0 0.00 0.12 0.01 65 1012.4
20240526175402 89 301 0.0 1.0 0.00 0.13 0.01 66 1012.4
20240526174902 88 301 0.0 3.0 0.00 0.13 0.01 63 1012.4
20240526174402 88 301 1.0 3.0 0.00 0.13 0.01 68 1012.4
20240526173903 88 142 0.0 1.0 0.00 0.13 0.01 69 1012.5
20240526171902 88 142 0.0 1.0 0.00 0.13 0.01 68 1012.4
20240526171402 88 142 0.0 1.0 0.00 0.13 0.01 68 1012.5
20240526170902 88 142 0.0 0.0 0.00 0.13 0.01 68 1012.5
20240526170402 87 142 0.0 1.0 0.00 0.13 0.01 68 1012.6
20240526165903 88 142 0.0 1.0 0.00 0.13 0.01 69 1012.8
20240526165403 89 142 0.0 1.0 0.00 0.13 0.01 72 1012.7
20240526164903 89 142 0.0 1.0 0.00 0.13 0.01 69 1012.9
20240526164402 88 142 0.0 0.0 0.00 0.13 0.01 69 1012.9
20240526163902 88 142 0.0 1.0 0.00 0.13 0.01 71 1012.8
20240526163402 88 142 0.0 1.0 0.00 0.13 0.01 68 1012.9
20240526162902 87 142 0.0 1.0 0.00 0.13 0.01 70 1012.9
20240526161903 87 142 0.0 0.0 0.00 0.13 0.01 70 1012.9
20240526160903 87 142 0.0 1.0 0.00 0.13 0.01 71 1013.0
20240526155402 87 142 0.0 1.0 0.00 0.13 0.01 71 1012.9
20240526153902 86 142 0.0 1.0 0.00 0.13 0.01 71 1012.9
20240526153402 86 142 0.0 1.0 0.00 0.13 0.01 74 1012.8
20240526152902 85 142 0.0 1.0 0.00 0.13 0.01 73 1012.8
20240526151902 86 142 0.0 1.0 0.00 0.13 0.01 77 1012.7
20240526151402 85 142 0.0 1.0 0.00 0.13 0.01 75 1012.7
20240526150903 85 142 0.0 1.0 0.00 0.13 0.01 75 1012.6
20240526150403 85 142 0.0 0.0 0.00 0.13 0.01 77 1012.6
20240526145903 85 142 0.0 0.0 0.00 0.13 0.01 76 1012.6
20240526145402 85 142 0.0 0.0 0.00 0.13 0.01 79 1012.5
20240526144903 84 142 0.0 0.0 0.00 0.13 0.01 77 1012.5
20240526144403 84 142 0.0 0.0 0.00 0.13 0.01 77 1012.4
20240526143902 84 142 0.0 0.0 0.00 0.13 0.01 79 1012.5
20240526143402 83 142 0.0 0.0 0.00 0.13 0.01 80 1012.5
20240526142903 82 142 0.0 1.0 0.00 0.13 0.01 85 1012.7
20240526142403 82 142 0.0 1.0 0.00 0.13 0.01 87 1012.8
20240526141903 81 142 0.0 0.0 0.00 0.13 0.01 89 1012.6
20240526141403 80 142 0.0 0.0 0.00 0.13 0.01 90 1012.5
20240526140903 79 142 0.0 0.0 0.00 0.13 0.01 89 1012.4
20240526135403 77 142 0.0 0.0 0.00 0.13 0.01 93 1012.5
20240526134902 77 142 0.0 1.0 0.00 0.13 0.01 94 1012.7
20240526134403 76 142 0.0 1.0 0.00 0.13 0.01 95 1012.7
20240526133903 76 142 0.0 0.0 0.00 0.13 0.01 98 1012.5
20240526133403 75 142 0.0 0.0 0.00 0.13 0.01 98 1012.4
20240526132902 75 142 0.0 0.0 0.00 0.13 0.01 99 1012.4
20240526132403 74 142 0.0 0.0 0.00 0.13 0.01 99 1012.3
20240526131903 74 142 0.0 0.0 0.00 0.13 0.01 99 1012.4
20240526131403 74 142 0.0 0.0 0.00 0.13 0.01 100 1012.3
20240526130903 73 142 0.0 0.0 0.00 0.13 0.01 100 1012.3
20240526130403 73 142 0.0 0.0 0.00 0.13 0.01 100 1012.4
20240526125902 73 142 0.0 0.0 0.00 0.13 0.01 100 1012.3
20240526125403 73 142 0.0 0.0 0.00 0.13 0.01 100 1012.5
20240526124902 73 142 0.0 0.0 0.00 0.13 0.01 100 1012.4
20240526124403 73 142 0.0 0.0 0.00 0.13 0.01 100 1012.4
20240526123902 73 142 0.0 0.0 0.00 0.13 0.01 100 1012.4
20240526123403 73 142 0.0 0.0 0.00 0.13 0.01 100 1012.3
20240526122902 73 142 0.0 0.0 0.00 0.13 0.01 100 1012.4
20240526122403 73 142 0.0 0.0 0.00 0.13 0.01 100 1012.3
20240526121904 72 142 0.0 0.0 0.00 0.13 0.01 100 1012.2
20240526121403 72 142 0.0 0.0 0.00 0.13 0.01 100 1012.3
20240526120903 72 142 0.0 0.0 0.00 0.13 0.01 100 1012.3
20240526120405 71 142 0.0 0.0 0.00 0.13 0.01 100 1012.4
20240526115403 70 142 0.0 0.0 0.00 0.13 0.01 100 1012.2
20240526114903 70 142 0.0 0.0 0.00 0.13 0.01 100 1012.2
20240526114403 69 142 0.0 0.0 0.00 0.13 0.01 100 1012.1
20240526113902 69 142 0.0 0.0 0.00 0.13 0.01 100 1012.2
20240526113403 69 142 0.0 0.0 0.00 0.13 0.01 100 1012.2
20240526112903 69 142 0.0 0.0 0.00 0.13 0.01 100 1012.2
20240526112403 69 142 0.0 0.0 0.00 0.13 0.01 100 1012.2
20240526111903 68 142 0.0 0.0 0.00 0.13 0.01 100 1012.3
20240526111403 68 142 0.0 0.0 0.00 0.13 0.01 100 1012.3
20240526110903 68 142 0.0 0.0 0.00 0.13 0.01 100 1012.4
20240526110402 68 142 0.0 0.0 0.00 0.13 0.01 100 1012.0
20240526105902 67 142 0.0 0.0 0.00 0.13 0.01 100 1012.0
20240526105403 67 142 0.0 0.0 0.00 0.13 0.01 100 1011.9
20240526104403 67 142 0.0 0.0 0.00 0.13 0.01 100 1011.9
20240526103903 67 142 0.0 0.0 0.00 0.13 0.01 100 1011.9
20240526103402 67 142 0.0 0.0 0.00 0.13 0.01 100 1011.8
20240526102902 67 142 0.0 0.0 0.00 0.13 0.01 100 1011.8
20240526102403 67 142 0.0 0.0 0.00 0.13 0.01 100 1011.6
20240526101903 67 142 0.0 0.0 0.01 0.13 0.01 100 1011.6
20240526101403 67 142 0.0 0.0 0.01 0.13 0.01 100 1011.4
20240526100903 67 142 0.0 0.0 0.01 0.13 0.01 100 1011.4
20240526100403 67 142 0.0 0.0 0.01 0.13 0.01 100 1011.3
20240526095903 67 142 0.0 0.0 0.01 0.13 0.01 100 1011.5
20240526094903 68 142 0.0 0.0 0.01 0.13 0.01 100 1011.6
20240526094402 68 142 0.0 0.0 0.01 0.13 0.01 100 1011.7
20240526093902 68 142 0.0 0.0 0.01 0.13 0.01 100 1011.6
20240526093403 68 142 0.0 0.0 0.01 0.13 0.01 100 1011.6
20240526092903 67 142 0.0 0.0 0.01 0.13 0.01 100 1011.5
20240526092403 68 142 0.0 0.0 0.01 0.13 0.01 100 1011.3
20240526091902 68 141 0.0 0.0 0.00 0.12 0.00 100 1011.2
20240526091403 68 142 0.0 0.0 0.00 0.12 0.00 100 1011.1
20240526090902 68 142 0.0 0.0 0.00 0.12 0.00 100 1011.0
20240526090402 68 142 0.0 0.0 0.00 0.12 0.00 100 1011.1
20240526085902 68 142 0.0 0.0 0.00 0.12 0.00 100 1011.2
20240526085403 68 142 0.0 0.0 0.00 0.12 0.00 100 1011.2
20240526084403 68 142 0.0 0.0 0.00 0.12 0.00 100 1011.1
20240526083903 68 142 0.0 0.0 0.00 0.12 0.00 100 1011.0
20240526083403 68 142 0.0 0.0 0.00 0.12 0.00 100 1010.9
20240526082903 68 142 0.0 0.0 0.00 0.12 0.00 100 1010.9
20240526082403 68 142 0.0 0.0 0.00 0.12 0.00 100 1010.8
20240526081903 68 142 0.0 0.0 0.00 0.12 0.00 100 1010.7
20240526080903 68 142 0.0 0.0 0.00 0.12 0.00 100 1010.8
20240526080402 69 142 0.0 0.0 0.00 0.12 0.00 100 1010.8
20240526075403 69 142 0.0 0.0 0.00 0.12 0.00 100 1010.8
20240526074903 69 142 0.0 0.0 0.00 0.12 0.00 100 1010.7
20240526074403 69 142 0.0 0.0 0.00 0.12 0.00 100 1010.8
20240526073903 69 142 0.0 0.0 0.00 0.12 0.00 100 1010.8
20240526072902 69 142 0.0 0.0 0.00 0.12 0.00 100 1010.8
20240526072402 69 142 0.0 0.0 0.00 0.12 0.00 100 1010.7
20240526071903 69 142 0.0 0.0 0.00 0.12 0.00 100 1010.8
20240526071402 69 142 0.0 0.0 0.00 0.12 0.00 100 1010.8
20240526070903 69 142 0.0 0.0 0.00 0.12 0.00 100 1010.9
20240526070403 69 142 0.0 0.0 0.00 0.12 0.00 100 1010.9
20240526065903 69 142 0.0 0.0 0.00 0.12 0.00 100 1010.9
20240526064903 69 142 0.0 0.0 0.00 0.12 0.00 99 1010.8
20240526064403 69 142 0.0 0.0 0.00 0.12 0.00 99 1010.9
20240526063902 69 142 0.0 0.0 0.00 0.12 0.00 99 1011.1
20240526063403 69 142 0.0 0.0 0.00 0.12 0.00 100 1011.1